Location: Helsinki
(60.1699°N, 24.9384°E)
Time: 23:23:55
(UTC+02:00)

Altair - Pass Details

Date: 04 November 2020
Orbit: 1502 x 1682 km, 47.2° (Epoch: 25 November)

Event Time Altitude Azimuth Distance (km) Brightness Sun altitude
Rises 05:03:14 0° 232° (SW) 4,643 - -20.9°
Reaches altitude 10° 05:06:34 10° 223° (SW) 3,675 - -20.5°
Exits shadow 05:07:35 14° 220° (SW) 3,404 8.9 -20.4°
Maximum altitude 05:14:32 34° 164° (SSE) 2,337 8.5 -19.5°
Drops below altitude 10° 05:22:43 10° 104° (ESE) 3,784 10.7 -18.5°
Sets 05:26:12 0° 96° (E) 4,797 11.8 -18.1°
